ソーホー彗星

C/1997 L3 ( SOHO )

English version
Home page
Updated on September 29, 1997

---------------------------------------------------------------------

・ プロフィール

発見日 1997年6月12日
発見光度 4-5
発見者 SOHO-LASCO coronagraphs C2 and C3

・ 軌道要素

T 1997 June 13.84660 TT                                 Marsden
q   0.0084443            (2000.0)            P               Q
                   Peri.   65.01517     +0.18464811     -0.96005935
                   Node   341.47913     -0.95287764     -0.12250020
e   1.0            Incl.  138.56366     +0.24068503     +0.25155467
>From 23 observations 1997 June 12-13.

・ 光度変化

        m1 = 15 + 5 logΔ + 10.0 log r

---------------------------------------------------------------------

軌道要素は Dr. Brian G. Marsden の計算によるもので、 M.P.E.C. 1997-M07 に掲載されたものです。
光度グラフはComet for Windowsで作成したものです。

---------------------------------------------------------------------

Copyright(C) Seiichi Yoshida (comet@aerith.net). All rights reserved.